Location: Unspecified
(0.0000°N, 0.0000°E)
Time: 18:04:38
(UTC+00:00)

Vanguard 3 - Pass Details

Date: 08 December 2017
Orbit: 508 x 3264 km, 33.3° (Epoch: 24 April)

Event Time Altitude Azimuth Distance (km) Brightness Sun altitude
Rises 09:43:03 0° 234° (SW) 5,183 11.2 51.3°
Reaches altitude 10° 09:47:13 10° 234° (SW) 3,721 10.5 52.1°
Maximum altitude 09:55:58 90° 164° (SSE) 968 8.6 53.8°
Drops below altitude 10° 10:00:57 10° 55° (NE) 2,178 9.6 54.7°
Sets 10:02:51 0° 55° (NE) 2,923 10.1 55.0°
